Tacoma Narrows, WA
on Friday, January 11, 2013

Friday
Previous Day Next Day
Daily Summary
 ActualAverageRecord
Temperature
Mean Temperature °F °F  
Max Temperature 37°F 43°F 55°F (2014)
Min Temperature 30°F 36°F 23°F (2007)
Degree Days
Heating Degree Days 32    
Moisture
Dew Point 24°F   
Average Humidity 69    
Maximum Humidity 85    
Minimum Humidity 50    
Precipitation
Precipitation 0.00 in in in ()
Wind
Wind Speed 4 mph   
Max Wind Speed 9 mph   
Max Gust Speed mph   
Visibility 10 miles   
Events     
Averages and records for this station are not official NWS values.
Key: T is trace of precipitation, MM is missing value
Source: NWS Daily Summary
Seasonal Weather Averages
Time(PST)TemperatureDew PointHumidity Pressure Visibility Wind DirectionWind SpeedGust SpeedPrecipitationEvents Conditions
12:53 AM 33.1°F 28.9°F 85% 30.13 in 10.0 miles NW 5.8 mph - N/A   Scattered Clouds
1:53 AM 32.0°F 28.0°F 85% 30.15 in 10.0 miles NNW 3.5 mph - N/A   Clear
2:53 AM 34.0°F 25.0°F 70% 30.15 in 10.0 miles North 9.2 mph - N/A   Clear
3:53 AM 30.9°F 24.1°F 76% 30.17 in 10.0 miles NW 4.6 mph - N/A   Clear
4:53 AM 32.0°F 25.0°F 75% 30.18 in 10.0 miles North 6.9 mph - N/A   Clear
5:53 AM 33.1°F 25.0°F 72% 30.19 in 10.0 miles NNE 4.6 mph - N/A   Clear
6:53 AM 33.1°F 25.0°F 72% 30.22 in 10.0 miles ENE 3.5 mph - N/A   Clear
7:53 AM 30.0°F 25.0°F 82% 30.25 in 10.0 miles Calm Calm - N/A   Partly Cloudy
8:53 AM 32.0°F 27.0°F 82% 30.27 in 10.0 miles Calm Calm - N/A   Clear
9:53 AM 33.1°F 25.0°F 72% 30.29 in 10.0 miles NE 3.5 mph - N/A   Clear
10:53 AM 35.1°F 26.1°F 70% 30.30 in 10.0 miles North 3.5 mph - N/A   Clear
11:53 AM 36.0°F 24.1°F 62% 30.30 in 10.0 miles Variable 5.8 mph - N/A   Clear
12:53 PM 37.0°F 23.0°F 57% 30.31 in 10.0 miles NNE 8.1 mph - N/A   Partly Cloudy
1:53 PM 37.0°F 19.9°F 50% 30.32 in 10.0 miles North 8.1 mph - N/A   Clear
2:53 PM 37.0°F 21.9°F 54% 30.32 in 10.0 miles NE 4.6 mph - N/A   Scattered Clouds
3:53 PM 36.0°F 19.9°F 52% 30.33 in 10.0 miles Calm Calm - N/A   Scattered Clouds
4:53 PM 35.1°F 19.9°F 54% 30.33 in 10.0 miles Calm Calm - N/A   Scattered Clouds
5:53 PM 33.1°F 19.9°F 59% 30.34 in 10.0 miles Calm Calm - N/A   Clear
6:53 PM 34.0°F 19.9°F 56% 30.33 in 10.0 miles Calm Calm - N/A   Clear
7:53 PM 32.0°F 23.0°F 69% 30.32 in 10.0 miles Calm Calm - N/A   Clear
8:53 PM 32.0°F 24.1°F 73% 30.32 in 10.0 miles Calm Calm - N/A   Clear
9:53 PM 30.9°F 23.0°F 72% 30.33 in 10.0 miles Calm Calm - N/A   Clear
10:53 PM 30.9°F 24.1°F 76% 30.33 in 10.0 miles SE 3.5 mph - N/A   Clear
11:53 PM 30.0°F 25.0°F 82% 30.32 in 10.0 miles Calm Calm - N/A   Clear
Moon Phase
Jan. 11 Jan. 18 Jan. 26 Feb. 03 Feb. 10
Sunrise:07:54 AM (PST) Moon Rise:07:28 AM (PST)1/11
Sunset:04:42 PM (PST) Moon Set:05:11 PM (PST)1/11

Copyright © 2014 The Weather Underground, Inc.